TK5EP-11 Weather Reports


time (UTC)temp
C
wind
direction
speed
KPH
gust
KPH
rain 1hr
cm
rain 24hr
cm
rain mn
cm
humidity
%
barometer
mb
20260505152618 22 0.0 0.0 0.00 0.00 0.00 60
20260505151539 23 0.0 0.0 0.00 0.00 0.00 58
20260505150500 24 0.0 0.0 0.00 0.00 0.00 56
20260505124615 26 0.0 0.0 0.00 0.00 0.00 50
20260505123534 27 0.0 0.0 0.00 0.00 0.00 53
20260505122452 27 0.0 0.0 0.00 0.00 0.00 48
20260505121411 28 0.0 0.0 0.00 0.00 0.00 44
20260505120328 29 0.0 0.0 0.00 0.00 0.00 46
20260505115244 28 0.0 0.0 0.00 0.00 0.00 45
20260505114201 30 0.0 0.0 0.00 0.00 0.00 44
20260505113117 30 0.0 0.0 0.00 0.00 0.00 47
20260505110951 27 0.0 0.0 0.00 0.00 0.00 57
20260505101631 22 0.0 0.0 0.00 0.00 0.00 78
20260505100552 21 0.0 0.0 0.00 0.00 0.00 79
20260505095514 21 0.0 0.0 0.00 0.00 0.00 83
20260505094436 20 0.0 0.0 0.00 0.00 0.00 84
20260505093358 20 0.0 0.0 0.00 0.00 0.00 88
20260505092321 19 0.0 0.0 0.00 0.00 0.00 90
20260505091244 19 0.0 0.0 0.00 0.00 0.00 91
20260505090207 18 0.0 0.0 0.00 0.00 0.00 93
20260505085130 18 0.0 0.0 0.00 0.00 0.00 93
20260505084052 18 0.0 0.0 0.00 0.00 0.00 94
20260505083014 18 0.0 0.0 0.00 0.00 0.00 94
20260505081936 18 0.0 0.0 0.00 0.00 0.00 94
20260505080858 18 0.0 0.0 0.00 0.00 0.00 94
20260505075820 19 0.0 0.0 0.00 0.00 0.00 95
20260505074744 18 0.0 0.0 0.00 0.00 0.00 95
20260505073706 19 0.0 0.0 0.00 0.00 0.00 96
20260505072629 18 0.0 0.0 0.00 0.00 0.00 97
20260505071553 17 0.0 0.0 0.00 0.00 0.00 96
20260505070516 17 0.0 0.0 0.00 0.00 0.00 96
20260505065440 17 0.0 0.0 0.00 0.00 0.00 96
20260505064403 17 0.0 0.0 0.00 0.00 0.00 96
20260505063328 17 0.0 0.0 0.00 0.00 0.00 96
20260505062251 17 0.0 0.0 0.00 0.00 0.00 96
20260505061214 17 0.0 0.0 0.00 0.00 0.00 96
20260505060138 17 0.0 0.0 0.00 0.00 0.00 97
20260505055103 16 0.0 0.0 0.00 0.00 0.00 96
20260505052952 16 0.0 0.0 0.00 0.00 0.00 96
20260505051917 16 0.0 0.0 0.00 0.00 0.00 96
20260505050842 16 0.0 0.0 0.00 0.00 0.00 96
20260505041547 15 0.0 0.0 0.00 0.00 0.00 96
20260505040512 15 0.0 0.0 0.00 0.00 0.00 96
20260505035437 15 0.0 0.0 0.00 0.00 0.00 96
20260505034402 15 0.0 0.0 0.00 0.00 0.00 96
20260505033327 15 0.0 0.0 0.00 0.00 0.00 96
20260505032252 15 0.0 0.0 0.00 0.00 0.00 96
20260505031217 15 0.0 0.0 0.00 0.00 0.00 96
20260505030142 15 0.0 0.0 0.00 0.00 0.00 96
20260505025107 15 0.0 0.0 0.00 0.00 0.00 96
20260505024032 15 0.0 0.0 0.00 0.00 0.00 96
20260505022957 15 0.0 0.0 0.00 0.00 0.00 95
20260505021922 15 0.0 0.0 0.00 0.00 0.00 96
20260505020848 15 0.0 0.0 0.00 0.00 0.00 96
20260505014737 15 0.0 0.0 0.00 0.00 0.00 95
20260505013702 15 0.0 0.0 0.00 0.00 0.00 95
20260505012628 15 0.0 0.0 0.00 0.00 0.00 95
20260505011553 15 0.0 0.0 0.00 0.00 0.00 95
20260505005443 15 0.0 0.0 0.00 0.00 0.00 95
20260505004408 15 0.0 0.0 0.00 0.00 0.00 95
20260505003332 15 0.0 0.0 0.00 0.00 0.00 95
20260505002257 15 0.0 0.0 0.00 0.00 0.00 95
20260505001222 15 0.0 0.0 0.00 0.00 0.00 95
20260505000148 15 0.0 0.0 0.00 0.00 0.00 95
20260504235112 15 0.0 0.0 0.00 0.00 0.00 95
20260504234038 15 0.0 0.0 0.00 0.00 0.00 95
20260504233003 15 0.0 0.0 0.00 0.00 0.00 95
20260504231928 15 0.0 0.0 0.00 0.00 0.00 95
20260504230852 15 0.0 0.0 0.00 0.00 0.00 95
20260504225817 15 0.0 0.0 0.00 0.00 0.00 95
20260504224742 15 0.0 0.0 0.00 0.00 0.00 94
20260504223708 15 0.0 0.0 0.00 0.00 0.00 94
20260504222633 15 0.0 0.0 0.00 0.00 0.00 94
20260504221557 15 0.0 0.0 0.00 0.00 0.00 94
20260504220523 15 0.0 0.0 0.00 0.00 0.00 94
20260504215448 15 0.0 0.0 0.00 0.00 0.00 94
20260504214413 15 0.0 0.0 0.00 0.00 0.00 94
20260504213338 15 0.0 0.0 0.00 0.00 0.00 94
20260504212304 15 0.0 0.0 0.00 0.00 0.00 94
20260504211228 15 0.0 0.0 0.00 0.00 0.00 93
20260504210153 15 0.0 0.0 0.00 0.00 0.00 93
20260504205119 15 0.0 0.0 0.00 0.00 0.00 93
20260504204043 15 0.0 0.0 0.00 0.00 0.00 93
20260504203008 15 0.0 0.0 0.00 0.00 0.00 93
20260504201933 15 0.0 0.0 0.00 0.00 0.00 92
20260504200859 15 0.0 0.0 0.00 0.00 0.00 92
20260504195824 15 0.0 0.0 0.00 0.00 0.00 91
20260504194749 15 0.0 0.0 0.00 0.00 0.00 91
20260504193713 15 0.0 0.0 0.00 0.00 0.00 90
20260504192638 16 0.0 0.0 0.00 0.00 0.00 89
20260504191602 15 0.0 0.0 0.00 0.00 0.00 88
20260504190526 16 0.0 0.0 0.00 0.00 0.00 87
20260504185450 16 0.0 0.0 0.00 0.00 0.00 86
20260504184414 16 0.0 0.0 0.00 0.00 0.00 85
20260504183338 16 0.0 0.0 0.00 0.00 0.00 83
20260504182304 17 0.0 0.0 0.00 0.00 0.00 81
20260504181226 17 0.0 0.0 0.00 0.00 0.00 78
20260504180149 17 0.0 0.0 0.00 0.00 0.00 76
20260504175113 17 0.0 0.0 0.00 0.00 0.00 75
20260504174036 17 0.0 0.0 0.00 0.00 0.00 76
20260504173001 17 0.0 0.0 0.00 0.00 0.00 77
20260504171923 17 0.0 0.0 0.00 0.00 0.00 76
20260504170847 17 0.0 0.0 0.00 0.00 0.00 76